User: anonymous   Login
Location: Caltech
(34.1382°N, 118.1253°W)
Time: 07:41:53
(UTC-07:00)
Language:

Iridium 72 - Orbit

View from above orbital plane
View from above orbital plane
View from above satellite
View from above satellite

Ground track
Ground track

The orbit data is extracted from the following two-line orbital elements,

1 25343U 98032B   16205.44977970  .00000011  00000-0 -29792-5 0  9997
2 25343  86.3964   1.2930 0002184  89.6748 292.6625 14.34212807951983
Epoch (UTC): 23 July 2016 10:47:40
Eccentricity: 0.0002184
inclination: 86.3964°
perigee height: 776 km
apogee height: 779 km
right ascension of ascending node: 1.2930°
argument of perigee: 89.6748°
revolutions per day: 14.34212807
mean anomaly at epoch: 292.6625°
orbit number at epoch: 95198

The dashed part of the orbit path shows where the satellite is in the earth's shadow,  

DLR